星链-31588 (STARLINK-31588 )

导读

STARLINK-31588是美国太空探索技术公司(SpaceX)星链(Starlink)星座的组成卫星,于2024年3月25日发射升空。星链项目旨在打造全球卫星互联网星座,该卫星入轨后,进一步拓展了星链星座的覆盖规模,助力为全球提供低延迟、高速率的卫星互联网接入服务。

基本信息
目录编号:
59335
目录名称:
STARLINK-31588
国际标识:
2024-057R
轨道中心:
EARTH
卫星名称:
星链-31588
卫星全名:
星链-31588 (STARLINK-31588 )
卫星状态:
在轨 (已飞行901 天)
发射日期:
2024-03-25 UTC
国别 :
美国 (US)
星等 :
--
该卫星已列入 空间交会检测服务 Space Conjunction Data Service (SCDS) ,当前飞行风险评估等级: 无高风险
轨道信息
数据来源 国际轨道数据
星历时间: 2026-09-11T15:49:28+0800
17小时前
查看轨道信息
半长轴: 6861.205km
偏心率: 0.0000609
轨道倾角: 43.000°
近地点辐角 263.321°
升交点赤经 218.358°
平近点角 96.757°
近地点: 482.65km
远地点: 483.486km
周期: 94.267分钟
每日圈数: 15.275739
详细信息
固有亮度:
5
最大亮度:
0.3
卫星平台:
Starlink v2.0 mini
覆盖范围:
全球
运营商:
太空探索技术公司
运营商所在国:
美国
制造商(研发单位):
太空探索技术公司
制造商所在国:
美国
使用方式:
暂无
卫星简介
星链(Starlink)计划是由太空探索技术公司(SpaceX)提出的一个巨型低轨卫星互联网星座项目,计划在2019年至2024年间在太空搭建由约1.2万颗卫星组成的“星链”网络,其中1584颗将部署在地球上空550千米处的近地轨道,并从2020年开始工作。该卫星仍在工作。
2D轨道图
3D轨道图
轨道高度分析图
轨道倾角分析图
轨道综合分析图
查看轨道综合分析图
交会数据列表
事件ID 空间交会对象 最接近时刻(TCA) 交会距离 交会风险概率(CRP) 交会风险指数(CRI) 操作
CDM_260913-100705-933506-704022
2026-09-13T
10:07:59+0000
0.983 km
远距离
2.184323E-5 中风险 0.62
CDM_260914-041005-933506-704021
2026-09-14T
04:10:45+0000
1.084 km
极远距离
1.557999E-5 中风险 0.59
CDM_260913-114205-933506-704022
2026-09-13T
11:42:08+0000
1.170 km
极远距离
1.193964E-5 中风险 0.57
CDM_260914-064205-933506-680121
2026-09-14T
06:42:42+0000
1.649 km
极远距离
2.775707E-6 低风险 0.44
CDM_260914-054405-933506-704021
2026-09-14T
05:44:54+0000
2.188 km
极远距离
1.811928E-6 低风险 0.4
CDM_260910-164705-933506-470921
2026-09-10T
16:47:16+0000
2.858 km
极远距离
6.793624E-7 极低风险 0.32
与全量物体交会距离演化趋势
与全量物体交会风险概率演化趋势